Location: Baumgarten
(49.0970°N, 12.7493°E)
Time: 18:00:12
(UTC+00:00)

USA 215 - Pass Details

Date: 05 July 2020
Orbit: 1102 x 1106 km, 123.0° (Epoch: 08 August)

Event Time Altitude Azimuth Distance (km) Brightness Sun altitude
Rises 20:56:56 0° 55° (NE) 3,927 6.2 -12.0°
Reaches altitude 10° 20:59:27 10° 58° (ENE) 2,966 5.5 -12.2°
Maximum altitude 21:05:58 66° 141° (SE) 1,196 3.2 -12.8°
Drops below altitude 10° 21:12:27 10° 223° (SW) 2,954 5.3 -13.3°
Sets 21:14:57 0° 226° (SW) 3,909 6.0 -13.5°
